FENGYUN 1C DEB

Satellite information

Favourite Embed

Satellite Type and Status

DEBRISIN ORBIT

Key statistics

Satellite FENGYUN 1C DEB at a glance.

Uptime

9715

Days in orbit

Revolutions

≈ 14.1

Per day

Orbit

SSO

Sun Synchronous Orbit

Inclination

98.7

Latest

Satellite identification and parameters

Extended collection of information and parameters for FENGYUN 1C DEB.

Object identification

Identified? True

Debris? True

Object name: FENGYUN 1C DEB

International designator: 1999-025ABT

Object number (NORAD): 30356

Object ID (CCSDS): 30356

Country: PEOPLES REPUBLIC OF CHINA (PRC)

Current information (Y/N): Y

RCS size: SMALL

Orbital parameters

Period: 101.909 minutes

Inclination: 98.6817 deg

SMA: 7227.151 km

Apoapsis: 886.651 km

Periapsis: 811.381 km

RAAN: 341.2263 deg

Eccentricy: 0.0052074

Argument of periapsis: 291.1746 deg

Mean anomaly: 122.8562 deg

Mean motion: 14.13032227 rev/day

Mean motion (dot): 0.00001987 rev/day2

B* drag term: 0.0010741 1/REarth

Two-line elements (TLE)

Creation date: Dec. 12, 2025, 7:26 a.m.

Reference frame: TEME

Reference center: EARTH

Epoch: Dec. 11, 2025, 11:04 p.m. UTC

TLE line 0: 0 FENGYUN 1C DEB

TLE line 1: 1 30356U 99025ABT 25345.96164536 .00001987 00000-0 10741-2 0 9991

TLE line 2: 2 30356 98.6817 341.2263 0052074 291.1746 122.8562 14.13032227970105

Live tracking on map

Real-time ground track for satellite FENGYUN 1C DEB.

In-orbit conjunctions

A list of the most updated potential collisions computed for object FENGYUN 1C DEB.

Target Orbit TCA Probability of collision Miss distance Type
FENGYUN 1C DEB SSO 2025-10-17 04:49:22 0.0001728453 532.0 (m) DEBRIS
CZ-2C DEB SSO 2025-01-20 06:22:25 0.0005969665 61.0 (m) DEBRIS
SL-16 DEB LEO 2024-08-16 10:28:48 0.0001091916 46.0 (m) DEBRIS

Associated space launch

Chinese polar orbiting meteorological satellite

FENGYUN 1C DEB was lifted into orbit during the mission ‘Long March 4B | Feng Yun 1C’, on board a Long March 4B space rocket.

The launch took place on May 10, 1999, 1:33 a.m. from Launch Complex 7.

For more information about the launch, click the button.

Launch to space Long March 4B | Feng Yun 1C
Long March 4B | Feng Yun 1C

Agency: N/A

Status: Launch Successful

Launch date: May 10, 1999, 1:33 a.m. UTC

Rocket: Long March 4B

Launch pad: Launch Complex 7

Location: Taiyuan Satellite Launch Center, People's Republic of China

...

Latest news about this satellite

There are no fresh news available about this satellite. Check back as we update our databases every day.


Newsletter sign-up

Weekly statistics, charts and insights to help you stay on top of the space industry.